Weather History for Clearfield, PA

Change the Weather History Date:

Friday, April 13, 2012

  Actual Average (KDUJ) Record (KDUJ)
Temperature  
Mean Temperature 44 °F 46 °F  
Max Temperature 62 °F 56 °F 81 °F (2014)
Min Temperature 28 °F 35 °F 20 °F (1973)
Degree Days  
Heating Degree Days 20 19  
Month to date heating degree days 281  
Since 1 July heating degree days 6239  
Cooling Degree Days 0 0  
Month to date cooling degree days 0  
Year to date cooling degree days 0  
Moisture  
Dew Point 23 °F    
Average Humidity 48    
Maximum Humidity 88    
Minimum Humidity 20    
Precipitation  
Precipitation 0.00 in 0.12 in 1.14 in (2004)
Month to date precipitation 1.53  
Sea Level Pressure  
Sea Level Pressure 30.24 in    
Wind  
Wind Speed 4 mph (WSW)    
Max Wind Speed 13 mph    
Max Gust Speed 17 mph    
Visibility 10 miles    
Events      
T = Trace of Precipitation, MM = Missing Value Source: NWS Daily Summary

Daily Weather History Graph

Daily Weather History Graph

Search for Another Location

Airport:

Trip Planner

Search our weather history database for the weather conditions in past years. The results will help you decide how hot, cold, wet, or windy it might be!

Date:

Astronomy

Apr. 13, 2012 Rise Set
Actual Time 6:36 AM EDT 7:51 PM EDT
Civil Twilight 6:08 AM EDT 8:20 PM EDT
Nautical Twilight 5:34 AM EDT 8:54 PM EDT
Astronomical Twilight 4:58 AM EDT 9:30 PM EDT
Moon 2:23 AM EDT (4/13) 12:35 PM EDT (4/13)
Length of Visible Light 14h 11m
Length of Day
13h 15m
Waning Gibbous, 48% of the Moon is Illuminated
Apr 13
Waning Gibbous
Apr 21
New
Apr 29
First Quarter
May 5
Full
May 12
Last Quarter

Hourly Weather History & Observations

Time (EDT) Temp. Windchill Dew Point Humidity Pressure Visibility Wind Dir Wind Speed Gust Speed Precip Events Conditions
12:54 AM 35.1 °F 30.1 °F 24.1 °F 64% 30.21 in 10.0 mi North 5.8 mph - N/A   Clear
1:54 AM 34.0 °F 29.8 °F 24.1 °F 67% 30.21 in 10.0 mi NNW 4.6 mph - N/A   Clear
2:54 AM 30.9 °F 26.2 °F 23.0 °F 72% 30.21 in 10.0 mi NNW 4.6 mph - N/A   Clear
3:54 AM 30.0 °F - 23.0 °F 75% 30.22 in 10.0 mi Calm Calm - N/A   Clear
4:54 AM 30.0 °F - 23.0 °F 75% 30.23 in 10.0 mi Calm Calm - N/A   Clear
5:54 AM 28.0 °F - 23.0 °F 81% 30.25 in 10.0 mi Calm Calm - N/A   Clear
6:54 AM 28.0 °F - 24.1 °F 85% 30.28 in 10.0 mi Calm Calm - N/A   Clear
7:54 AM 30.0 °F - 27.0 °F 88% 30.30 in 10.0 mi Calm Calm - N/A   Clear
8:54 AM 35.1 °F 31.0 °F 28.0 °F 76% 30.30 in 10.0 mi SSW 4.6 mph - N/A   Clear
9:54 AM 43.0 °F - 28.0 °F 56% 30.31 in 10.0 mi Calm Calm - N/A   Clear
10:54 AM 50.0 °F - 26.1 °F 39% 30.29 in 10.0 mi SSW 5.8 mph - N/A   Clear
11:54 AM 53.1 °F - 25.0 °F 34% 30.27 in 10.0 mi Calm Calm - N/A   Clear
12:54 PM 54.0 °F - 21.9 °F 29% 30.25 in 10.0 mi Calm Calm - N/A   Clear
1:54 PM 57.0 °F - 24.1 °F 28% 30.24 in 10.0 mi Variable 4.6 mph - N/A   Clear
2:54 PM 59.0 °F - 23.0 °F 25% 30.22 in 10.0 mi Variable 5.8 mph - N/A   Clear
3:54 PM 60.1 °F - 21.9 °F 23% 30.19 in 10.0 mi SW 8.1 mph - N/A   Clear
4:54 PM 61.0 °F - 19.0 °F 20% 30.20 in 10.0 mi SW 12.7 mph - N/A   Clear
5:54 PM 60.1 °F - 19.0 °F 20% 30.21 in 10.0 mi WSW 11.5 mph 17.3 mph N/A   Clear
6:54 PM 59.0 °F - 18.0 °F 20% 30.21 in 10.0 mi WSW 11.5 mph 16.1 mph N/A   Clear
7:54 PM 55.9 °F - 19.0 °F 24% 30.21 in 10.0 mi West 4.6 mph - N/A   Clear
8:54 PM 54.0 °F - 19.9 °F 26% 30.22 in 10.0 mi West 4.6 mph - N/A   Clear
9:54 PM 48.0 °F - 21.9 °F 36% 30.22 in 10.0 mi SW 3.5 mph - N/A   Clear
10:54 PM 44.1 °F 40.8 °F 25.0 °F 47% 30.21 in 10.0 mi SW 5.8 mph - N/A   Clear
11:54 PM 42.1 °F - 24.1 °F 49% 30.22 in 10.0 mi Calm Calm - N/A   Clear